Time,TemperatureF,DewpointF,PressureIn,WindDirection,WindDirectionDegrees,WindSpeedMPH,WindSpeedGustMPH,Humidity,HourlyPrecipIn,Conditions,Clouds,dailyrainin,SoftwareType,DateUTC
2013-11-29 08:20:00,24.4,15.0,30.41,SE,127,2.0,2.0,67,0.00,,,0.00,Wunderground v.1.15,2013-11-29 14:20:00,
2013-11-29 08:25:00,24.8,15.7,30.41,SE,133,3.0,3.0,68,0.00,,,0.00,Wunderground v.1.15,2013-11-29 14:25:00,
2013-11-29 08:30:00,25.4,16.3,30.41,SE,128,3.0,3.0,68,0.00,,,0.00,Wunderground v.1.15,2013-11-29 14:30:00,
2013-11-29 08:35:00,25.8,16.7,30.41,ESE,121,3.0,6.0,68,0.00,,,0.00,Wunderground v.1.15,2013-11-29 14:35:00,
2013-11-29 08:40:00,26.3,17.2,30.41,SE,134,3.0,6.0,68,0.00,,,0.00,Wunderground v.1.15,2013-11-29 14:40:00,
2013-11-29 08:45:00,26.7,17.6,30.40,ESE,116,4.0,6.0,68,0.00,,,0.00,Wunderground v.1.15,2013-11-29 14:45:00,
2013-11-29 08:50:00,27.2,18.0,30.40,ESE,116,4.0,4.0,68,0.00,,,0.00,Wunderground v.1.15,2013-11-29 14:50:00,
2013-11-29 08:55:00,27.5,18.3,30.40,ESE,117,5.0,6.0,68,0.00,,,0.00,Wunderground v.1.15,2013-11-29 14:55:00,
2013-11-29 09:00:00,28.1,18.9,30.39,ESE,114,4.0,4.0,68,0.00,,,0.00,Wunderground v.1.15,2013-11-29 15:00:00,
2013-11-29 09:05:00,28.5,19.3,30.39,ESE,113,4.0,4.0,68,0.00,,,0.00,Wunderground v.1.15,2013-11-29 15:05:00,
2013-11-29 09:10:00,28.8,19.6,30.39,ESE,119,4.0,4.0,68,0.00,,,0.00,Wunderground v.1.15,2013-11-29 15:10:00,
2013-11-29 09:15:00,29.3,20.0,30.39,ESE,120,4.0,4.0,68,0.00,,,0.00,Wunderground v.1.15,2013-11-29 15:15:00,
2013-11-29 09:20:00,29.5,20.2,30.39,SE,130,5.0,5.0,68,0.00,,,0.00,Wunderground v.1.15,2013-11-29 15:20:00,
2013-11-29 09:25:00,30.0,20.7,30.39,SSE,151,4.0,9.0,68,0.00,,,0.00,Wunderground v.1.15,2013-11-29 15:25:00,
2013-11-29 09:30:00,30.4,21.1,30.39,ESE,104,4.0,6.0,68,0.00,,,0.00,Wunderground v.1.15,2013-11-29 15:30:00,
2013-11-29 09:35:00,30.9,21.6,30.39,SE,130,5.0,6.0,68,0.00,,,0.00,Wunderground v.1.15,2013-11-29 15:35:00,
2013-11-29 09:40:00,31.2,21.9,30.39,SE,143,5.0,10.0,68,0.00,,,0.00,Wunderground v.1.15,2013-11-29 15:40:00,
2013-11-29 09:45:00,31.6,22.2,30.39,SE,133,5.0,10.0,68,0.00,,,0.00,Wunderground v.1.15,2013-11-29 15:45:00,
2013-11-29 09:55:00,32.7,23.3,30.39,SE,134,5.0,6.0,68,0.00,,,0.00,Wunderground v.1.15,2013-11-29 15:55:00,
2013-11-29 10:00:00,32.9,23.5,30.39,SE,140,5.0,7.0,68,0.00,,,0.00,Wunderground v.1.15,2013-11-29 16:00:00,
2013-11-29 10:05:00,33.2,23.8,30.37,SE,143,6.0,7.0,68,0.00,,,0.00,Wunderground v.1.15,2013-11-29 16:05:00,
2013-11-29 10:10:00,33.8,24.4,30.37,SE,126,5.0,5.0,68,0.00,,,0.00,Wunderground v.1.15,2013-11-29 16:10:00,
2013-11-29 10:15:00,34.1,24.6,30.37,SSW,200,5.0,11.0,68,0.00,,,0.00,Wunderground v.1.15,2013-11-29 16:15:00,
2013-11-29 10:20:00,34.4,24.6,30.37,SE,144,6.0,7.0,67,0.00,,,0.00,Wunderground v.1.15,2013-11-29 16:20:00,
2013-11-29 10:25:00,34.6,24.8,30.37,SE,143,7.0,7.0,67,0.00,,,0.00,Wunderground v.1.15,2013-11-29 16:25:00,
2013-11-29 10:30:00,35.0,25.5,30.37,ESE,117,6.0,6.0,68,0.00,,,0.00,Wunderground v.1.15,2013-11-29 16:30:00,
2013-11-29 10:35:00,35.6,25.7,30.37,SE,130,5.0,6.0,67,0.00,,,0.00,Wunderground v.1.15,2013-11-29 16:35:00,
2013-11-29 10:40:00,35.8,25.9,30.37,SE,143,6.0,9.0,67,0.00,,,0.00,Wunderground v.1.15,2013-11-29 16:40:00,
2013-11-29 10:45:00,36.2,26.3,30.36,SE,140,6.0,9.0,67,0.00,,,0.00,Wunderground v.1.15,2013-11-29 16:45:00,
2013-11-29 10:50:00,36.6,26.7,30.36,ESE,117,6.0,9.0,67,0.00,,,0.00,Wunderground v.1.15,2013-11-29 16:50:00,
2013-11-29 10:55:00,37.0,27.1,30.36,SE,140,6.0,9.0,67,0.00,,,0.00,Wunderground v.1.15,2013-11-29 16:55:00,
2013-11-29 11:00:00,37.2,26.9,30.36,SE,127,7.0,7.0,66,0.00,,,0.00,Wunderground v.1.15,2013-11-29 17:00:00,
2013-11-29 11:05:00,37.3,27.0,30.35,SE,145,7.0,7.0,66,0.00,,,0.00,Wunderground v.1.15,2013-11-29 17:05:00,
2013-11-29 11:10:00,37.3,26.6,30.35,South,172,8.0,11.0,65,0.00,,,0.00,Wunderground v.1.15,2013-11-29 17:10:00,
2013-11-29 11:15:00,37.6,27.3,30.35,SE,140,8.0,11.0,66,0.00,,,0.00,Wunderground v.1.15,2013-11-29 17:15:00,
2013-11-29 11:20:00,38.0,27.6,30.34,ESE,110,7.0,8.0,66,0.00,,,0.00,Wunderground v.1.15,2013-11-29 17:20:00,
2013-11-29 11:25:00,38.6,28.2,30.34,SE,143,6.0,8.0,66,0.00,,,0.00,Wunderground v.1.15,2013-11-29 17:25:00,
2013-11-29 11:30:00,39.2,28.8,30.33,SE,140,5.0,8.0,66,0.00,,,0.00,Wunderground v.1.15,2013-11-29 17:30:00,
2013-11-29 11:35:00,39.6,28.8,30.33,SSE,147,6.0,8.0,65,0.00,,,0.00,Wunderground v.1.15,2013-11-29 17:35:00,
2013-11-29 11:40:00,39.9,29.1,30.33,SSE,151,7.0,7.0,65,0.00,,,0.00,Wunderground v.1.15,2013-11-29 17:40:00,
2013-11-29 11:45:00,40.5,29.7,30.32,SSE,150,6.0,7.0,65,0.00,,,0.00,Wunderground v.1.15,2013-11-29 17:45:00,
2013-11-29 11:50:00,40.8,29.9,30.32,SE,136,5.0,8.0,65,0.00,,,0.00,Wunderground v.1.15,2013-11-29 17:50:00,
2013-11-29 11:55:00,40.9,29.7,30.32,SE,143,7.0,8.0,64,0.00,,,0.00,Wunderground v.1.15,2013-11-29 17:55:00,
2013-11-29 12:00:00,40.8,29.2,30.32,SE,145,7.0,8.0,63,0.00,,,0.00,Wunderground v.1.15,2013-11-29 18:00:00,
2013-11-29 12:05:00,40.5,28.9,30.31,SSE,158,8.0,8.0,63,0.00,,,0.00,Wunderground v.1.15,2013-11-29 18:05:00,
2013-11-29 12:10:00,40.6,29.4,30.31,ESE,113,7.0,7.0,64,0.00,,,0.00,Wunderground v.1.15,2013-11-29 18:10:00,
2013-11-29 12:15:00,41.5,30.2,30.31,SSE,150,7.0,7.0,64,0.00,,,0.00,Wunderground v.1.15,2013-11-29 18:15:00,
2013-11-29 12:20:00,42.3,30.6,30.29,ESE,123,6.0,8.0,63,0.00,,,0.00,Wunderground v.1.15,2013-11-29 18:20:00,
2013-11-29 12:25:00,42.6,30.5,30.29,SSE,160,7.0,8.0,62,0.00,,,0.00,Wunderground v.1.15,2013-11-29 18:25:00,
2013-11-29 12:30:00,42.6,30.5,30.29,SSE,154,7.0,7.0,62,0.00,,,0.00,Wunderground v.1.15,2013-11-29 18:30:00,
2013-11-29 12:35:00,42.6,30.5,30.28,ESE,119,7.0,7.0,62,0.00,,,0.00,Wunderground v.1.15,2013-11-29 18:35:00,
2013-11-29 12:45:00,43.1,31.0,30.28,SE,124,7.0,7.0,62,0.00,,,0.00,Wunderground v.1.15,2013-11-29 18:45:00,
2013-11-29 12:50:00,43.3,30.7,30.27,SE,138,7.0,11.0,61,0.00,,,0.00,Wunderground v.1.15,2013-11-29 18:50:00,
2013-11-29 12:55:00,43.3,30.7,30.27,SE,144,8.0,11.0,61,0.00,,,0.00,Wunderground v.1.15,2013-11-29 18:55:00,
2013-11-29 13:00:00,43.5,30.9,30.26,SSE,162,7.0,7.0,61,0.00,,,0.00,Wunderground v.1.15,2013-11-29 19:00:00,
2013-11-29 13:05:00,43.9,31.3,30.26,SE,134,6.0,11.0,61,0.00,,,0.00,Wunderground v.1.15,2013-11-29 19:05:00,
2013-11-29 13:10:00,44.1,31.1,30.26,SSE,155,8.0,9.0,60,0.00,,,0.00,Wunderground v.1.15,2013-11-29 19:10:00,
2013-11-29 13:15:00,44.2,31.2,30.25,SE,144,8.0,9.0,60,0.00,,,0.00,Wunderground v.1.15,2013-11-29 19:15:00,
2013-11-29 13:20:00,44.6,31.6,30.25,SE,136,7.0,7.0,60,0.00,,,0.00,Wunderground v.1.15,2013-11-29 19:20:00,
2013-11-29 13:25:00,45.1,32.0,30.25,South,186,5.0,10.0,60,0.00,,,0.00,Wunderground v.1.15,2013-11-29 19:25:00,
2013-11-29 13:30:00,45.1,31.6,30.24,SE,143,7.0,7.0,59,0.00,,,0.00,Wunderground v.1.15,2013-11-29 19:30:00,
2013-11-29 13:40:00,45.5,32.0,30.24,SE,140,6.0,7.0,59,0.00,,,0.00,Wunderground v.1.15,2013-11-29 19:40:00,
2013-11-29 13:50:00,46.0,32.5,30.22,South,175,7.0,7.0,59,0.00,,,0.00,Wunderground v.1.15,2013-11-29 19:50:00,
2013-11-29 13:55:00,46.4,32.8,30.22,SE,141,6.0,7.0,59,0.00,,,0.00,Wunderground v.1.15,2013-11-29 19:55:00,
2013-11-29 14:00:00,46.5,32.5,30.22,ESE,104,6.0,6.0,58,0.00,,,0.00,Wunderground v.1.15,2013-11-29 20:00:00,
2013-11-29 14:05:00,46.5,32.5,30.21,ESE,110,7.0,7.0,58,0.00,,,0.00,Wunderground v.1.15,2013-11-29 20:05:00,
2013-11-29 14:10:00,46.8,32.8,30.21,East,97,7.0,7.0,58,0.00,,,0.00,Wunderground v.1.15,2013-11-29 20:10:00,
2013-11-29 14:15:00,47.0,33.0,30.21,South,182,6.0,10.0,58,0.00,,,0.00,Wunderground v.1.15,2013-11-29 20:15:00,
2013-11-29 14:20:00,47.1,32.6,30.20,ESE,116,6.0,6.0,57,0.00,,,0.00,Wunderground v.1.15,2013-11-29 20:20:00,
2013-11-29 14:25:00,47.3,32.8,30.20,SSE,161,7.0,9.0,57,0.00,,,0.00,Wunderground v.1.15,2013-11-29 20:25:00,
2013-11-29 14:30:00,47.4,32.9,30.20,SE,124,7.0,7.0,57,0.00,,,0.00,Wunderground v.1.15,2013-11-29 20:30:00,
2013-11-29 14:35:00,47.6,33.1,30.20,SE,127,6.0,7.0,57,0.00,,,0.00,Wunderground v.1.15,2013-11-29 20:35:00,
2013-11-29 14:40:00,47.7,32.8,30.20,ESE,123,6.0,6.0,56,0.00,,,0.00,Wunderground v.1.15,2013-11-29 20:40:00,
2013-11-29 14:45:00,47.7,32.8,30.18,SSE,152,7.0,9.0,56,0.00,,,0.00,Wunderground v.1.15,2013-11-29 20:45:00,
2013-11-29 14:55:00,48.2,32.8,30.18,SE,143,5.0,11.0,55,0.00,,,0.00,Wunderground v.1.15,2013-11-29 20:55:00,
2013-11-29 15:00:00,48.2,32.8,30.18,SSE,150,7.0,7.0,55,0.00,,,0.00,Wunderground v.1.15,2013-11-29 21:00:00,
2013-11-29 15:10:00,48.2,32.3,30.18,SE,127,8.0,8.0,54,0.00,,,0.00,Wunderground v.1.15,2013-11-29 21:10:00,
2013-11-29 15:15:00,48.2,32.3,30.18,SE,140,8.0,8.0,54,0.00,,,0.00,Wunderground v.1.15,2013-11-29 21:15:00,
2013-11-29 15:20:00,48.3,32.4,30.18,SE,140,7.0,11.0,54,0.00,,,0.00,Wunderground v.1.15,2013-11-29 21:20:00,
2013-11-29 15:25:00,48.5,32.6,30.18,SE,141,7.0,11.0,54,0.00,,,0.00,Wunderground v.1.15,2013-11-29 21:25:00,
2013-11-29 15:30:00,48.5,32.1,30.18,SSE,157,7.0,8.0,53,0.00,,,0.00,Wunderground v.1.15,2013-11-29 21:30:00,
2013-11-29 15:35:00,48.5,32.1,30.17,SE,144,7.0,8.0,53,0.00,,,0.00,Wunderground v.1.15,2013-11-29 21:35:00,
2013-11-29 15:40:00,48.5,32.1,30.17,SE,138,7.0,7.0,53,0.00,,,0.00,Wunderground v.1.15,2013-11-29 21:40:00,
2013-11-29 15:50:00,48.3,31.9,30.16,South,179,7.0,7.0,53,0.00,,,0.00,Wunderground v.1.15,2013-11-29 21:50:00,
2013-11-29 15:55:00,48.2,31.9,30.16,SE,136,6.0,7.0,53,0.00,,,0.00,Wunderground v.1.15,2013-11-29 21:55:00,
2013-11-29 16:00:00,48.2,31.4,30.16,SSE,152,6.0,8.0,52,0.00,,,0.00,Wunderground v.1.15,2013-11-29 22:00:00,
2013-11-29 16:05:00,48.0,31.2,30.16,SE,133,5.0,8.0,52,0.00,,,0.00,Wunderground v.1.15,2013-11-29 22:05:00,
2013-11-29 16:10:00,48.0,31.2,30.16,ESE,113,5.0,5.0,52,0.00,,,0.00,Wunderground v.1.15,2013-11-29 22:10:00,
2013-11-29 16:15:00,47.9,31.1,30.16,SE,130,5.0,5.0,52,0.00,,,0.00,Wunderground v.1.15,2013-11-29 22:15:00,
2013-11-29 16:20:00,47.7,30.9,30.16,ESE,120,4.0,7.0,52,0.00,,,0.00,Wunderground v.1.15,2013-11-29 22:20:00,
2013-11-29 16:25:00,47.4,30.6,30.16,ESE,107,4.0,7.0,52,0.00,,,0.00,Wunderground v.1.15,2013-11-29 22:25:00,
2013-11-29 16:30:00,47.1,30.4,30.16,SE,131,5.0,5.0,52,0.00,,,0.00,Wunderground v.1.15,2013-11-29 22:30:00,
2013-11-29 16:35:00,46.8,30.1,30.16,SE,124,5.0,6.0,52,0.00,,,0.00,Wunderground v.1.15,2013-11-29 22:35:00,
2013-11-29 16:40:00,46.4,29.7,30.16,SE,141,5.0,7.0,52,0.00,,,0.00,Wunderground v.1.15,2013-11-29 22:40:00,
2013-11-29 16:45:00,46.0,29.3,30.15,SE,137,5.0,7.0,52,0.00,,,0.00,Wunderground v.1.15,2013-11-29 22:45:00,
2013-11-29 16:50:00,45.5,28.9,30.15,SE,130,5.0,7.0,52,0.00,,,0.00,Wunderground v.1.15,2013-11-29 22:50:00,
2013-11-29 16:55:00,45.1,28.5,30.15,ESE,119,6.0,7.0,52,0.00,,,0.00,Wunderground v.1.15,2013-11-29 22:55:00,
2013-11-29 17:00:00,44.6,28.0,30.15,ESE,106,5.0,5.0,52,0.00,,,0.00,Wunderground v.1.15,2013-11-29 23:00:00,
2013-11-29 17:05:00,44.3,27.8,30.15,East,100,4.0,5.0,52,0.00,,,0.00,Wunderground v.1.15,2013-11-29 23:05:00,
2013-11-29 17:10:00,43.9,27.4,30.15,East,92,3.0,3.0,52,0.00,,,0.00,Wunderground v.1.15,2013-11-29 23:10:00,
2013-11-29 17:15:00,43.5,27.0,30.15,ESE,114,3.0,6.0,52,0.00,,,0.00,Wunderground v.1.15,2013-11-29 23:15:00,
2013-11-29 17:20:00,43.2,26.7,30.15,ESE,113,3.0,4.0,52,0.00,,,0.00,Wunderground v.1.15,2013-11-29 23:20:00,
2013-11-29 17:25:00,43.1,26.7,30.15,SE,136,3.0,4.0,52,0.00,,,0.00,Wunderground v.1.15,2013-11-29 23:25:00,
2013-11-29 17:30:00,42.8,26.4,30.16,ESE,117,3.0,6.0,52,0.00,,,0.00,Wunderground v.1.15,2013-11-29 23:30:00,
2013-11-29 17:35:00,42.6,26.2,30.16,ESE,104,3.0,6.0,52,0.00,,,0.00,Wunderground v.1.15,2013-11-29 23:35:00,
2013-11-29 17:40:00,42.5,26.1,30.16,ESE,114,3.0,3.0,52,0.00,,,0.00,Wunderground v.1.15,2013-11-29 23:40:00,
2013-11-29 17:50:00,42.1,25.7,30.17,East,96,2.0,2.0,52,0.00,,,0.00,Wunderground v.1.15,2013-11-29 23:50:00,
2013-11-29 17:55:00,41.6,25.3,30.17,East,96,1.0,2.0,52,0.00,,,0.00,Wunderground v.1.15,2013-11-29 23:55:00,
2013-11-29 18:00:00,41.2,24.9,30.17,East,96,1.0,1.0,52,0.00,,,0.00,Wunderground v.1.15,2013-11-30 00:00:00,
2013-11-29 18:05:00,40.8,24.5,30.17,East,95,1.0,2.0,52,0.00,,,0.00,Wunderground v.1.15,2013-11-30 00:05:00,
2013-11-29 18:15:00,40.1,23.9,30.17,East,95,1.0,2.0,52,0.00,,,0.00,Wunderground v.1.15,2013-11-30 00:15:00,
2013-11-29 18:20:00,39.8,23.6,30.17,East,95,1.0,1.0,52,0.00,,,0.00,Wunderground v.1.15,2013-11-30 00:20:00,
2013-11-29 18:25:00,39.8,23.6,30.17,East,96,2.0,2.0,52,0.00,,,0.00,Wunderground v.1.15,2013-11-30 00:25:00,
2013-11-29 18:30:00,39.9,24.1,30.17,East,100,2.0,2.0,53,0.00,,,0.00,Wunderground v.1.15,2013-11-30 00:30:00,
2013-11-29 18:35:00,39.9,24.1,30.17,ESE,121,3.0,3.0,53,0.00,,,0.00,Wunderground v.1.15,2013-11-30 00:35:00,
2013-11-29 18:40:00,40.1,24.3,30.17,ESE,123,3.0,4.0,53,0.00,,,0.00,Wunderground v.1.15,2013-11-30 00:40:00,
2013-11-29 18:45:00,40.1,24.3,30.17,ESE,123,3.0,4.0,53,0.00,,,0.00,Wunderground v.1.15,2013-11-30 00:45:00,
2013-11-29 18:50:00,39.9,24.1,30.17,SE,130,4.0,4.0,53,0.00,,,0.00,Wunderground v.1.15,2013-11-30 00:50:00,
2013-11-29 18:55:00,39.8,24.0,30.17,SE,126,4.0,4.0,53,0.00,,,0.00,Wunderground v.1.15,2013-11-30 00:55:00,
2013-11-29 19:00:00,39.5,23.8,30.17,ESE,117,3.0,3.0,53,0.00,,,0.00,Wunderground v.1.15,2013-11-30 01:00:00,
2013-11-29 19:05:00,39.2,23.5,30.17,ESE,117,3.0,3.0,53,0.00,,,0.00,Wunderground v.1.15,2013-11-30 01:05:00,
2013-11-29 19:10:00,39.1,23.4,30.17,ESE,113,3.0,3.0,53,0.00,,,0.00,Wunderground v.1.15,2013-11-30 01:10:00,
2013-11-29 19:15:00,38.9,23.2,30.17,ESE,113,3.0,3.0,53,0.00,,,0.00,Wunderground v.1.15,2013-11-30 01:15:00,
2013-11-29 19:20:00,38.8,23.6,30.17,ESE,113,2.0,2.0,54,0.00,,,0.00,Wunderground v.1.15,2013-11-30 01:20:00,
2013-11-29 19:25:00,38.6,23.4,30.17,ESE,116,2.0,2.0,54,0.00,,,0.00,Wunderground v.1.15,2013-11-30 01:25:00,
2013-11-29 19:30:00,38.6,23.4,30.17,SE,133,3.0,6.0,54,0.00,,,0.00,Wunderground v.1.15,2013-11-30 01:30:00,
2013-11-29 19:35:00,38.8,23.6,30.17,SE,127,4.0,6.0,54,0.00,,,0.00,Wunderground v.1.15,2013-11-30 01:35:00,
2013-11-29 19:45:00,38.6,23.4,30.17,SE,144,5.0,7.0,54,0.00,,,0.00,Wunderground v.1.15,2013-11-30 01:45:00,
2013-11-29 19:50:00,38.5,23.7,30.17,SE,131,5.0,5.0,55,0.00,,,0.00,Wunderground v.1.15,2013-11-30 01:50:00,
2013-11-29 19:55:00,38.6,23.8,30.17,ESE,109,5.0,7.0,55,0.00,,,0.00,Wunderground v.1.15,2013-11-30 01:55:00,
2013-11-29 20:00:00,38.8,24.0,30.16,SE,136,5.0,5.0,55,0.00,,,0.00,Wunderground v.1.15,2013-11-30 02:00:00,
2013-11-29 20:05:00,38.8,24.0,30.16,SE,141,5.0,5.0,55,0.00,,,0.00,Wunderground v.1.15,2013-11-30 02:05:00,
2013-11-29 20:10:00,38.8,24.0,30.16,SE,138,4.0,7.0,55,0.00,,,0.00,Wunderground v.1.15,2013-11-30 02:10:00,
2013-11-29 20:15:00,38.8,24.0,30.15,SSE,152,5.0,7.0,55,0.00,,,0.00,Wunderground v.1.15,2013-11-30 02:15:00,
2013-11-29 20:25:00,38.5,24.1,30.15,SSE,148,6.0,9.0,56,0.00,,,0.00,Wunderground v.1.15,2013-11-30 02:25:00,
2013-11-29 20:30:00,38.6,24.2,30.15,South,184,6.0,7.0,56,0.00,,,0.00,Wunderground v.1.15,2013-11-30 02:30:00,
2013-11-29 20:40:00,39.2,24.8,30.15,SSE,148,6.0,7.0,56,0.00,,,0.00,Wunderground v.1.15,2013-11-30 02:40:00,
2013-11-29 20:45:00,39.5,25.1,30.15,SSE,155,6.0,7.0,56,0.00,,,0.00,Wunderground v.1.15,2013-11-30 02:45:00,
2013-11-29 20:50:00,39.5,25.1,30.15,SSE,161,6.0,7.0,56,0.00,,,0.00,Wunderground v.1.15,2013-11-30 02:50:00,
2013-11-29 20:55:00,39.3,24.9,30.15,SSE,150,6.0,7.0,56,0.00,,,0.00,Wunderground v.1.15,2013-11-30 02:55:00,
2013-11-29 21:00:00,39.3,24.9,30.15,SSE,162,6.0,11.0,56,0.00,,,0.00,Wunderground v.1.15,2013-11-30 03:00:00,
2013-11-29 21:05:00,39.5,25.1,30.15,SSE,158,6.0,11.0,56,0.00,,,0.00,Wunderground v.1.15,2013-11-30 03:05:00,
2013-11-29 21:15:00,39.5,25.1,30.15,SSW,193,5.0,9.0,56,0.00,,,0.00,Wunderground v.1.15,2013-11-30 03:15:00,
2013-11-29 21:20:00,39.5,25.1,30.14,South,184,6.0,7.0,56,0.00,,,0.00,Wunderground v.1.15,2013-11-30 03:20:00,
2013-11-29 21:25:00,39.3,24.9,30.14,SSE,154,6.0,7.0,56,0.00,,,0.00,Wunderground v.1.15,2013-11-30 03:25:00,
2013-11-29 21:30:00,39.1,24.7,30.14,SSE,158,5.0,6.0,56,0.00,,,0.00,Wunderground v.1.15,2013-11-30 03:30:00,
2013-11-29 21:35:00,38.8,24.4,30.14,SSE,155,4.0,6.0,56,0.00,,,0.00,Wunderground v.1.15,2013-11-30 03:35:00,
2013-11-29 21:40:00,38.5,24.1,30.14,SSE,162,3.0,3.0,56,0.00,,,0.00,Wunderground v.1.15,2013-11-30 03:40:00,
2013-11-29 21:45:00,38.2,23.9,30.15,SSE,168,4.0,4.0,56,0.00,,,0.00,Wunderground v.1.15,2013-11-30 03:45:00,
2013-11-29 21:50:00,38.0,23.7,30.15,South,181,4.0,4.0,56,0.00,,,0.00,Wunderground v.1.15,2013-11-30 03:50:00,
2013-11-29 21:55:00,37.9,24.0,30.15,SSE,155,4.0,4.0,57,0.00,,,0.00,Wunderground v.1.15,2013-11-30 03:55:00,
2013-11-29 22:00:00,37.9,24.0,30.15,South,174,4.0,7.0,57,0.00,,,0.00,Wunderground v.1.15,2013-11-30 04:00:00,
2013-11-29 22:05:00,37.9,24.0,30.15,SSE,151,4.0,7.0,57,0.00,,,0.00,Wunderground v.1.15,2013-11-30 04:05:00,
2013-11-29 22:10:00,37.9,24.0,30.15,SSE,150,4.0,4.0,57,0.00,,,0.00,Wunderground v.1.15,2013-11-30 04:10:00,
2013-11-29 22:20:00,37.5,23.6,30.14,South,186,4.0,4.0,57,0.00,,,0.00,Wunderground v.1.15,2013-11-30 04:20:00,
2013-11-29 22:25:00,37.2,23.4,30.14,SSE,158,3.0,4.0,57,0.00,,,0.00,Wunderground v.1.15,2013-11-30 04:25:00,
2013-11-29 22:30:00,36.9,23.1,30.14,SSE,158,3.0,4.0,57,0.00,,,0.00,Wunderground v.1.15,2013-11-30 04:30:00,
2013-11-29 22:35:00,36.9,23.1,30.14,SSE,162,4.0,4.0,57,0.00,,,0.00,Wunderground v.1.15,2013-11-30 04:35:00,
2013-11-29 22:40:00,36.8,23.0,30.14,SSE,151,4.0,4.0,57,0.00,,,0.00,Wunderground v.1.15,2013-11-30 04:40:00,
2013-11-29 22:45:00,36.8,23.0,30.14,SSE,158,5.0,5.0,57,0.00,,,0.00,Wunderground v.1.15,2013-11-30 04:45:00,
2013-11-29 22:50:00,36.6,22.8,30.14,SSE,161,5.0,5.0,57,0.00,,,0.00,Wunderground v.1.15,2013-11-30 04:50:00,
2013-11-29 22:55:00,36.5,22.7,30.14,SSE,157,4.0,5.0,57,0.00,,,0.00,Wunderground v.1.15,2013-11-30 04:55:00,
2013-11-29 23:00:00,36.5,22.7,30.14,South,175,4.0,8.0,57,0.00,,,0.00,Wunderground v.1.15,2013-11-30 05:00:00,
2013-11-29 23:05:00,36.3,22.5,30.13,South,175,4.0,8.0,57,0.00,,,0.00,Wunderground v.1.15,2013-11-30 05:05:00,
2013-11-29 23:10:00,36.2,22.8,30.13,SSE,157,5.0,5.0,58,0.00,,,0.00,Wunderground v.1.15,2013-11-30 05:10:00,
2013-11-29 23:15:00,36.2,22.8,30.12,SE,145,5.0,5.0,58,0.00,,,0.00,Wunderground v.1.15,2013-11-30 05:15:00,
2013-11-29 23:20:00,36.2,22.8,30.12,South,172,5.0,5.0,58,0.00,,,0.00,Wunderground v.1.15,2013-11-30 05:20:00,
2013-11-29 23:25:00,36.3,22.9,30.12,South,189,4.0,5.0,58,0.00,,,0.00,Wunderground v.1.15,2013-11-30 05:25:00,
2013-11-29 23:30:00,36.3,22.9,30.12,SSE,167,5.0,7.0,58,0.00,,,0.00,Wunderground v.1.15,2013-11-30 05:30:00,
2013-11-29 23:40:00,36.6,23.2,30.12,SSE,168,5.0,6.0,58,0.00,,,0.00,Wunderground v.1.15,2013-11-30 05:40:00,
2013-11-29 23:45:00,36.6,23.2,30.12,SSE,158,4.0,6.0,58,0.00,,,0.00,Wunderground v.1.15,2013-11-30 05:45:00,
2013-11-29 23:50:00,36.6,23.2,30.12,SSE,151,4.0,4.0,58,0.00,,,0.00,Wunderground v.1.15,2013-11-30 05:50:00,
2013-11-29 23:55:00,36.6,23.2,30.12,SSE,151,4.0,8.0,58,0.00,,,0.00,Wunderground v.1.15,2013-11-30 05:55:00,